x

Neah Bay, - 6nm North Of Cape Flattery, Wa (traffic Separation Lighted Buoy) (46087) Wave Buoy

6:50 - Sat 3rd Dec 2016 All times are PST. -8 hours from GMT.

  • Sig Wave height 14.4ft
  • Swell Direction
  • Peak Period 16s
  • Average Period 11s
  • Wind
    9mph, 13mph gusts
  • Sea Temp 52°f
  • Ar Temp 50°f
  • Sea Pressure 1023.7mb
  • Neah Bay, - 6nm North Of Cape Flattery, Wa     (traffic Separation Lighted Buoy)
  • Neah Bay, - 6nm North Of Cape Flattery, Wa     (traffic Separation Lighted Buoy)

More Historic Weather Station data

Upgrade to MSW Pro to gain access to the past 30 days of data for over 8000 Wavebouys and Weather Stations around the globe.

Join Pro

Comparision Forecast

View Surf forecast
   
Sáb 12/03 6:50 14.5ft 16s 11s 9 13 mph 1023.7mb 52f 50f
6:20 14.5ft 16s 10s 11 13 mph 1023.6mb 51f 49f
5:50 13.5ft 17s  -  20 27 mph 1022.9mb 52f 50f
5:20 14ft 15s  -  16 22 mph 1022.9mb 52f 50f
4:50 14ft 16s 10s 9 11 mph 1022.9mb 52f 50f
4:20 15.5ft 16s 10s 9 13 mph 1022.9mb 52f 50f
3:50 15ft 16s 10s 11 16 mph 1023mb 52f 49f
3:20 14ft 13s 9s 11 13 mph 1022.8mb 52f 49f
2:50 14ft 17s 9s 4 9 mph 1022.7mb 52f 49f
2:20 14ft 17s 9s 9 11 mph 1022.5mb 52f 49f
1:50 14.5ft 16s 9s 18 27 mph 1022.4mb 52f 51f
1:20 15.5ft 17s 10s 18 25 mph 1022mb 52f 50f
12:50 14ft 12s 9s 16 20 mph 1022.1mb 52f 49f
12:20 14ft 12s 10s 16 18 mph 1022mb 52f 49f
Sex 12/02 11:50 14ft 13s 10s 16 18 mph 1021.9mb 52f 50f
11:20 13ft 12s 9s 16 20 mph 1021.7mb 52f 50f
10:50 12ft 13s 9s 16 20 mph 1021.2mb 52f 49f
10:20 12ft 13s 9s 22 29 mph 1020.5mb 52f 51f
9:50 12ft 12s 9s 13 22 mph 1020.5mb 52f 51f
9:20 11ft 12s 9s 16 20 mph 1020.2mb 52f 50f
8:50 11ft 13s 9s 20 27 mph 1019.8mb 52f 51f
8:20 10ft 12s 8s 16 25 mph 1020mb 52f 48f
7:50 11ft 12s 9s 20 25 mph 1019.2mb 52f 52f
7:20 11.5ft 13s 9s 11 16 mph 1018.8mb 52f 51f
6:50 11.5ft 12s 8s 20 25 mph 1018.6mb 52f 50f
6:20 11ft 12s 8s 18 20 mph 1018.6mb 52f 51f
5:20 11ft 11s 8s 18 22 mph 1017.8mb 52f 52f
4:50 11ft 11s 8s 22 29 mph 1017.6mb 52f 52f
4:20 10.5ft 12s 8s 22 31 mph 1017.4mb 52f 52f
3:50 10.5ft 12s 8s 20 27 mph 1017.2mb 52f 53f
3:20 11ft 11s 8s 20 25 mph 1017.3mb 52f 52f
2:50 10ft 11s 7s 16 20 mph 1017mb 52f 52f
2:20 10ft 12s 7s 22 27 mph 1017mb 52f 51f
1:50 10.5ft 8s 7s 29 36 mph 1016.7mb 52f 52f
1:20 11ft 8s 8s 20 27 mph 1016.7mb 52f 53f
12:50 11ft 7s 7s 16 20 mph 1016.9mb 52f 52f
12:20 10ft 8s 7s 29 36 mph 1016.2mb 52f 52f
11:50 10.5ft 7s 7s 29 34 mph 1016.7mb 52f 52f
11:20 10ft 8s 7s 29 36 mph 1017.2mb 52f 53f
10:50 10ft 12s 7s 29 36 mph 1017.5mb 52f 52f
10:20 10ft 12s 7s 25 31 mph 1017.9mb 52f 51f
9:50 9.5ft 12s 7s 25 31 mph 1018.2mb 52f 51f
9:20 9ft 13s 7s 25 31 mph 1018.5mb 52f 51f
8:50 9ft 12s 7s 20 27 mph 1019.3mb 52f 51f
8:20 9ft 11s 7s 18 22 mph 1019.9mb 52f 51f
7:50 9ft 13s 7s 20 25 mph 1020mb 52f 51f
7:20 8ft 12s 7s 18 22 mph 1020.3mb 52f 51f
6:50 8ft 11s 7s 22 27 mph 1020.4mb 52f 51f
6:20 8.5ft 12s 8s 20 25 mph 1021.2mb 52f 51f
5:50 8ft 11s 7s 18 22 mph 1021.3mb 52f 51f
5:20 8ft 11s 7s 13 20 mph 1022mb 52f 51f
4:50 9.5ft 11s 8s 20 27 mph 1021.3mb 52f 51f
4:20 9ft 12s 8s 20 25 mph 1021.6mb 52f 51f
3:50 9ft 12s 8s 22 27 mph 1021.9mb 52f 51f
3:20 9ft 11s 7s 18 25 mph 1022.6mb 53f 50f
2:50 9.5ft 11s 8s 22 27 mph 1022.9mb 53f 50f
2:20 9ft 11s 7s 22 27 mph 1022.8mb 53f 50f
1:50 8ft 11s 7s 18 22 mph 1023.2mb 53f 51f
1:20 8ft 11s 7s 18 20 mph 1023.2mb 53f 50f
12:50 7.5ft 12s 7s 18 22 mph 1023.3mb 53f 50f
12:20 7ft 10s 7s 13 18 mph 1023.8mb 53f 50f
Qui 12/01 11:50 8ft 11s 7s 11 18 mph 1023.9mb 53f 50f
11:20 7ft 11s 7s 16 22 mph 1023.9mb 53f 50f
10:50 7.5ft 11s 7s 16 18 mph 1023.9mb 52f 50f
10:20 7ft 11s 7s 16 20 mph 1024mb 52f 50f
9:50 8ft 11s 7s 16 20 mph 1023.7mb 52f 49f
9:20 7ft 12s 8s 18 22 mph 1023.8mb 52f 48f
8:50 6ft 12s 7s 20 22 mph 1023.9mb 52f 48f
8:20 6.5ft 11s 7s 18 25 mph 1023.9mb 52f 48f
7:50 5.5ft 12s 7s 18 20 mph 1024.2mb 52f 48f
7:20 6ft 11s 8s 18 22 mph 1024.1mb 53f 49f
6:50 6ft 12s 8s 13 18 mph 1024.3mb 53f 49f
6:20 7ft 12s 8s 13 18 mph 1024.4mb 53f 49f
5:50 7ft 12s 8s 11 13 mph 1024.6mb 53f 49f
5:20 7ft 12s 8s 11 13 mph 1024.5mb 53f 49f
4:50 7.5ft 12s 8s 11 16 mph 1024.2mb 53f 49f
4:20 7ft 12s 8s 13 16 mph 1024.4mb 53f 49f
3:50 7.5ft 12s 8s 13 16 mph 1024mb 53f 49f
3:20 8.5ft 11s 8s 16 20 mph 1023.7mb 53f 48f
2:50 9ft 11s 8s 16 18 mph 1024mb 52f 48f
2:20 9.5ft 12s 8s 16 18 mph 1023.5mb 52f 48f
1:50 9.5ft 12s 9s 9 13 mph 1023.7mb 52f 47f
1:20 9ft 11s 9s 7 11 mph 1023.9mb 52f 46f
12:50 11ft 11s 10s 9 11 mph 1024.1mb 52f 47f
12:20 10ft 12s 9s 7 13 mph 1023.8mb 52f 46f
11:50 11ft 12s 9s 9 13 mph 1023.9mb 52f 46f
11:20 11ft 13s 10s 9 13 mph 1024mb 52f 46f
10:50 11ft 12s 10s 9 13 mph 1024mb 52f 46f
9:50 9.5ft 11s 9s 11 16 mph 1023.6mb 52f 45f
9:20 11ft 12s 10s 9 11 mph 1023.6mb 52f 45f
8:50 12ft 12s 10s 7 11 mph 1023.3mb 52f 45f
8:20 10ft 13s 9s 7 11 mph 1023.2mb 52f 45f
7:50 9ft 11s 9s 4 7 mph 1023.2mb 52f 45f
7:20 8.5ft 13s 9s 7 9 mph 1023mb 52f 45f
6:50 9.5ft 12s 9s 7 11 mph 1022.8mb 52f 46f
6:20 10ft 13s 9s 2 7 mph 1022.8mb 52f 47f
5:50 10ft 12s 9s  -  4 mph 1022.4mb 52f 47f
4:50 9ft 13s 8s 4 7 mph 1022mb 52f 47f
4:20 10.5ft 13s 9s 7 9 mph 1022.1mb 52f 47f
3:50 9.5ft 11s 8s 11 16 mph 1022mb 52f 47f
3:20 10ft 13s 8s 9 11 mph 1022.1mb 52f 47f
2:50 10.5ft 12s 8s 11 13 mph 1022mb 52f 47f
2:20 10.5ft 13s 8s 9 13 mph 1021.8mb 52f 48f
1:50 10.5ft 12s 8s 9 13 mph 1021.4mb 52f 48f
1:20 11.5ft 13s 9s 11 13 mph 1020.9mb 52f 48f
12:50 14ft 14s 9s 11 13 mph 1020.5mb 52f 48f
12:20 13ft 14s 9s 11 16 mph 1020.4mb 52f 49f
Qua 11/30 11:50 13ft 12s 9s 13 16 mph 1020.4mb 52f 49f
11:20 13.5ft 14s 9s 13 20 mph 1020.1mb 52f 50f
10:50 13ft 14s 9s 20 27 mph 1019.7mb 52f 50f
10:20 13ft 10s 9s 20 25 mph 1019.4mb 52f 50f
9:50 15.5ft 13s 10s 22 29 mph 1019.2mb 52f 51f
9:20 15ft 15s 9s 25 29 mph 1019.1mb 52f 51f
8:50 15ft 14s 9s 22 27 mph 1019.1mb 52f 51f
8:20 16.5ft 13s 9s 20 27 mph 1019mb 52f 51f
7:50 15.5ft 11s 9s 22 29 mph 1018.8mb 53f 51f
7:20 18.5ft 12s 10s 22 29 mph 1018.4mb 53f 51f
6:50 15ft 11s 9s 25 29 mph 1018.3mb 53f 51f
6:20 15.5ft 12s 9s 27 34 mph 1017.8mb 53f 51f
5:50 15.5ft 13s 9s 25 31 mph 1017.6mb 53f 51f
5:20 15.5ft 12s 9s 25 31 mph 1017.3mb 53f 51f
4:50 17ft 13s 9s 25 34 mph 1016.9mb 53f 51f
4:20 16.5ft 13s 9s 29 36 mph 1016.5mb 53f 52f
3:50 16.5ft 12s 9s 27 34 mph 1016.1mb 53f 52f
2:50 15.5ft 13s 8s 31 38 mph 1014.9mb 53f 52f
2:20 16.5ft 12s 9s 31 38 mph 1014.6mb 53f 52f
1:50 17.5ft 12s 8s 31 38 mph 1014.2mb 53f 52f
1:20 16.5ft 12s 8s 34 38 mph 1013.8mb 53f 52f
12:50 19.5ft 12s 9s 31 40 mph 1013.7mb 53f 52f
12:20 19ft 13s 9s 31 40 mph 1013.5mb 53f 52f
11:50 18ft 12s 9s 29 36 mph 1013.3mb 53f 52f
11:20 18.5ft 12s 9s 31 38 mph 1012.6mb 53f 52f
10:50 18.5ft 12s 9s 34 43 mph 1011.7mb 53f 52f
10:20 18ft 12s 9s 34 40 mph 1011.1mb 53f 52f
9:50 15.5ft 12s 8s 34 40 mph 1010.3mb 53f 52f
9:20 18ft 11s 9s 34 40 mph 1009.7mb 53f 52f
8:50 17ft 11s 9s 34 40 mph 1008.9mb 53f 52f
8:20 15.5ft 11s 8s 34 43 mph 1008.4mb 53f 51f
7:50 15ft 11s 8s 34 43 mph 1007.5mb 53f 51f
7:20 13ft 12s 8s 29 40 mph 1006.9mb 53f 50f
6:50 13.5ft 11s 8s 29 36 mph 1006.2mb 54f 49f
6:20 12ft 11s 7s 27 31 mph 1005mb 54f 52f
5:50 12.5ft 11s 7s 22 25 mph 1004.3mb 54f 52f
5:20 11ft 10s 7s 29 38 mph 1004.3mb 54f 51f
4:50 10.5ft 10s 7s 31 38 mph 1004.1mb 54f 52f
4:20 10.5ft 10s 7s 31 38 mph 1003.4mb 54f 52f
3:50 10ft 9s 7s 20 27 mph 1003.4mb 53f 50f
3:20 10ft 10s 7s 20 27 mph 1003.5mb 53f 51f
2:50 11ft 10s 7s 11 16 mph 1004.2mb 53f 49f
2:20 10.5ft 9s 7s 22 29 mph 1004.2mb 53f 50f
1:50 10ft 9s 7s 22 27 mph 1004.3mb 53f 49f
1:20 10ft 9s 7s 25 31 mph 1004.6mb 53f 49f
12:50 9.5ft 8s 7s 25 31 mph 1004.7mb 53f 49f
12:20 10ft 8s 7s 27 31 mph 1005mb 53f 50f
Ter 11/29 11:50 9ft 8s 7s 25 29 mph 1005.4mb 53f 49f
11:20 8ft 8s 7s 22 25 mph 1005.6mb 53f 50f
10:50 6.5ft 7s 6s 20 27 mph 1006mb 53f 49f
10:20 6ft 14s 6s 22 27 mph 1006.3mb 53f 49f
9:50 6ft 8s 6s 25 29 mph 1006.6mb 53f 50f
9:20 5ft 13s 6s 27 31 mph 1007.3mb 53f 50f
8:50 5.5ft 14s 6s 25 31 mph 1008.1mb 53f 49f
8:20 5ft 14s 6s 22 29 mph 1009mb 53f 49f
7:50 6ft 14s 6s 22 27 mph 1009.8mb 53f 50f
7:20 6ft 15s 6s 25 29 mph 1009.8mb 53f 50f
6:50 6ft 15s 6s 27 29 mph 1009.7mb 53f 50f
6:20 6ft 14s 6s 25 31 mph 1010.9mb 53f 50f
5:50 6.5ft 15s 6s 25 31 mph 1011.7mb 53f 50f
5:20 6.5ft 14s 6s 25 29 mph 1012.4mb 53f 50f
4:50 7ft 13s 7s 27 31 mph 1012.8mb 53f 50f
4:20 7ft 14s 6s 25 31 mph 1013.7mb 53f 50f
3:50 6.5ft 15s 6s 25 29 mph 1014.4mb 54f 50f